Location: *
(50.9000°N, 10.8500°E)
Time: 08:18:22
(UTC+00:00)

Daily predictions for brighter satellites

Satellite Brightness Start Highest point End
(mag) Time Altitude Azimuth Time Altitude Azimuth Time Altitude Azimuth
ATLAS 2AS CENTAUR R/B 3.4 17:35:05 10° NW 17:42:43 64° SW 17:49:44 10° SSE
Cosmos 1140 Rocket 4.1 17:38:04 10° NNW 17:42:56 39° NE 17:47:45 10° SE
Cosmos 1300 Rocket 3.7 17:40:36 10° SSW 17:44:55 80° WNW 17:49:16 10° N
SL-8 R/B 3.9 17:42:13 10° WSW 17:46:57 63° S 17:51:42 10° E
Nadezhda 1 Rocket 4.0 17:41:18 10° S 17:47:14 58° E 17:53:12 10° NNE
Cosmos 2327 Rocket 4.5 17:41:06 10° N 17:47:24 79° E 17:53:32 10° SSE
IRS-1A Rocket 4.4 17:42:49 10° SE 17:48:20 58° ENE 17:53:49 10° N
RESURS DK-1 4.3 17:45:50 10° N 17:48:30 16° NE 17:51:08 10° ENE
COSMO-SKYMED 1 2.8 17:44:40 10° NNE 17:49:02 77° WNW 17:53:22 10° SSW
ERBS 2.7 17:47:41 10° NW 17:51:01 53° NNE 17:54:21 10° ESE
ISS -2.1 17:48:51 10° S 17:51:19 19° SE 17:53:46 10° E
Okean 1-7 Rocket 4.3 17:47:33 10° N 17:51:37 34° ENE 17:55:42 10° SE
NOAA 11 4.2 17:47:06 10° SSE 17:52:34 69° ENE 17:58:02 10° N
GEOS 3 Rocket 3.7 17:50:12 10° ESE 17:55:15 64° NE 18:00:21 10° NW
COSMOS 2428 3.7 17:51:02 10° NW 17:56:32 51° WSW 18:02:00 10° S
ARGOS 4.1 17:58:39 10° ESE 18:03:12 29° ENE 18:07:48 10° N
Meteor 1-4 Rocket 3.0 18:02:20 10° N 18:05:43 39° ENE 18:09:01 10° SE
USA 186 2.7 18:05:53 10° SE 18:08:59 33° ENE 18:12:05 10° N
Cosmos 2227 Rocket 2.8 18:05:47 10° SSE 18:10:45 33° ESE 18:15:46 10° NE
Cosmos 1455 Rocket 4.0 18:07:53 10° SE 18:11:36 27° E 18:15:21 10° NNE
CZ-2D R/B 3.6 18:10:02 10° S 18:13:49 68° WSW 18:17:37 10° NNW
Timation 2 Rocket 4.5 18:07:44 10° SW 18:14:13 66° NW 18:20:27 10° NNE
CZ-4 R/B 3.6 18:11:18 10° SSW 18:14:44 29° W 18:18:14 10° NW
SJ-6B 3.4 18:11:31 10° SE 18:15:21 39° ENE 18:19:08 10° N
SPOT 3 Rocket 3.9 18:10:40 10° SE 18:15:32 45° ENE 18:20:27 10° N
Cosmos 2219 3.3 18:10:47 10° S 18:16:24 58° ESE 18:22:02 10° NE
Cosmos 1371 Rocket 4.2 18:11:19 10° S 18:16:26 50° ESE 18:21:38 10° NNE
CZ-2C R/B 4.3 18:14:50 13° ESE 18:18:41 27° ENE 18:23:20 10° N
Cosmos 2297 Rocket 2.6 18:15:37 10° S 18:20:51 40° ESE 18:26:07 10° NE
Cosmos 676 Rocket 4.0 18:19:36 10° NNW 18:24:52 64° ENE 18:30:02 10° SE
Cosmos 1626 Rocket 4.5 18:24:04 10° N 18:27:50 28° ENE 18:30:02 18° ESE
Cosmos 1023 Rocket 4.4 18:24:10 10° NNW 18:29:21 84° ENE 18:34:28 10° SSE
Meteor 2-17 Rocket 4.4 18:25:30 10° N 18:31:35 71° ENE 18:37:37 10° SSE
MOS 1 4.4 18:29:21 10° SSE 18:35:04 85° WSW 18:40:49 10° NNW
Lacrosse 5 rocket 1.7 18:32:02 10° SSW 18:35:23 35° SE 18:37:12 22° E
In-Cosmos 22 4.1 18:30:31 10° NNW 18:35:56 88° ENE 18:41:26 10° SSE
Okean 1 Rocket 3.8 18:32:30 10° SSW 18:36:47 56° WNW 18:41:07 10° N
Cosmos 405 Rocket 2.6 18:33:59 10° S 18:37:37 59° E 18:41:19 10° NNE
Cosmos 2341 Rocket 4.0 18:32:18 10° N 18:38:36 88° W 18:44:49 10° S
Cosmos 1461 4.5 18:35:19 10° WSW 18:38:57 33° NW 18:42:35 10° NNE
Cosmos 2181 Rocket 4.0 18:34:07 10° S 18:40:14 59° E 18:46:31 10° NNE
Cosmos 1190 Rocket 4.4 18:35:34 10° NNW 18:40:49 64° WSW 18:46:01 10° S
Cosmos 1939 Rocket 4.2 18:37:32 10° SSW 18:41:10 39° W 18:44:51 10° NNW
H-2A R/B 2.1 18:40:24 14° SE 18:44:37 58° ENE 18:49:38 10° N
Cosmos 1437 Rocket 2.7 18:42:21 10° N 18:46:08 57° ENE 18:48:19 23° SSE
Cosmos 1674 2.8 18:42:53 10° N 18:46:32 50° ENE 18:48:20 26° SE
Cosmos 2237 Rocket 3.1 18:44:00 10° NW 18:49:30 50° WSW 18:54:58 10° S
Resurs 1-3 3.9 18:47:34 24° SE 18:49:52 46° ENE 18:54:05 10° N
Cosmos 1602 Rocket 4.1 18:45:53 10° N 18:49:56 36° ENE 18:51:23 28° ESE
Meteor 1-15 Rocket 4.3 18:45:07 10° S 18:50:55 88° ESE 18:56:52 10° NNE
Cosmos 2366 rocket 4.0 18:45:00 10° N 18:51:22 70° ENE 18:57:41 10° SSE
Cosmos 864 Rocket 4.5 18:45:09 10° N 18:51:23 67° ENE 18:57:37 10° SSE
ADEOS Rocket 3.7 18:44:40 10° NNE 18:51:49 49° E 18:59:17 10° S
Cosmos 2218 Rocket 4.0 18:45:49 10° N 18:52:13 74° ENE 18:58:31 10° SSE
Cosmos 1850 Rocket 4.2 18:52:40 10° NNW 18:57:45 51° ENE 19:00:08 29° ESE
Meteor 1-24 Rocket 3.8 18:52:40 10° N 18:58:29 69° ENE 19:03:15 16° SSE
SL-8 Rocket 4.0 18:53:27 10° N 18:59:41 86° W 19:05:51 10° S
Cosmos 389 Rocket 4.2 18:57:03 10° NNW 19:00:09 32° W 19:03:14 10° SSW
FREGAT/IRIS 4.3 18:58:24 10° SSW 19:00:57 31° W 19:03:32 10° NNW
CZ-2C R/B 3.6 18:59:25 10° NNE 19:03:54 89° ESE 19:08:20 10° SSW
Resurs 01 Rocket 1.9 19:02:49 33° ESE 19:04:23 49° ENE 19:08:42 10° N
USA 234 3.8 19:02:36 10° ENE 19:08:55 57° N 19:15:20 10° W
Cosmos 1805 3.1 19:06:57 23° S 19:09:11 62° E 19:13:03 10° NNE
SAR-Lupe-2 4.3 19:06:07 10° N 19:09:39 54° WNW 19:13:08 10° SSW
Cosmos 1959 Rocket 4.5 19:05:44 10° N 19:11:53 85° W 19:18:05 10° S
ASTEX 1 4.2 19:09:41 10° N 19:14:26 52° WNW 19:19:11 10° SSW
Cosmos 2056 Rocket 3.8 19:09:34 10° SSW 19:14:59 72° WNW 19:20:24 10° NNE
Cosmos 1420 Rocket 4.0 19:12:38 10° S 19:17:52 63° ESE 19:23:08 10° NNE
Cosmos 1603 4.2 19:12:39 10° NNW 19:18:07 45° NE 19:19:52 35° E
CZ-4C R/B 4.0 19:14:02 10° NW 19:19:32 30° NNE 19:24:40 14° ENE
ERS-1 Rocket 4.2 19:20:52 24° ENE 19:21:09 24° ENE 19:25:08 10° N
KORONAS-FOTON 3.8 19:17:25 10° NNW 19:21:12 76° W 19:22:30 39° S
CZ-2C R/B 3.9 19:17:44 10° NE 19:21:05 24° ENE 19:21:05 24° ENE
SL-16 R/B 2.4 19:16:59 10° NNW 19:22:38 67° WSW 19:26:04 24° S
SPOT 5 4.4 19:26:13 21° ENE 19:26:16 21° ENE 19:30:02 10° N
RESURS DK-1 2.2 19:23:03 10° NNW 19:27:13 82° ENE 19:27:47 65° SE
ERBS 3.6 19:24:15 10° WNW 19:27:18 31° SW 19:27:32 30° SW
ISS -3.2 19:24:20 10° WSW 19:26:55 49° SW 19:26:55 49° SW
SL-08 RB Rocket 3.7 19:26:58 35° S 19:28:59 85° WSW 19:33:41 10° NNW
SL-8 R/B 3.8 19:24:34 10° W 19:29:17 58° SSW 19:30:06 50° SSE
Cosmos 1741 Rocket 3.9 19:23:56 10° NNW 19:29:19 83° ENE 19:31:10 42° SSE
Cosmos 1626 3.0 19:26:12 10° N 19:28:57 37° NE 19:28:57 37° NE
Cosmos 2084 Rocket 3.7 19:27:28 10° SW 19:31:56 71° NW 19:35:37 15° NE
MetOp-B 4.3 19:30:54 45° ESE 19:32:04 54° ENE 19:37:17 10° N
Spot 2 Rocket 3.5 19:34:39 51° ESE 19:35:31 60° ENE 19:40:30 10° N
Cosmos 1733 3.6 19:39:11 52° NNE 19:39:11 52° NNE 19:42:09 10° NNE
Cosmos 2082 3.6 19:34:01 10° SSW 19:39:46 90° NW 19:45:32 10° NNE
USA 186 4.4 19:37:20 10° SW 19:39:58 21° W 19:42:38 10° NW
Meteor 1-22 Rocket 4.4 19:35:31 10° SSW 19:41:38 86° WNW 19:47:46 10° NNE
Terra 3.5 19:42:20 19° NE 19:42:20 19° NE 19:45:05 10° NNE
ARGOS 3.8 19:39:17 18° S 19:43:12 54° W 19:48:31 10° NNW
SPOT 1/Viking Rocket 4.2 19:44:24 37° ENE 19:44:24 37° ENE 19:49:05 10° N
SL-14 R/B 3.4 19:45:23 10° N 19:48:59 71° NNW 19:48:59 71° NNW
Cosmos 2227 Rocket 3.0 19:49:06 10° SW 19:54:37 52° NW 20:00:11 10° NNE
DMSP B5D2-2 3.9 19:50:31 10° NNE 19:55:50 69° ESE 19:56:01 68° ESE
Cosmos 1934 Rocket 4.0 19:50:15 10° N 19:56:18 56° ENE 19:56:55 54° E
CZ-2C R/B 3.5 19:55:54 35° SSW 19:58:08 61° W 20:03:44 10° NNW
Cosmos 1953 Rocket 4.4 19:54:19 10° N 19:57:35 39° NNE 19:57:35 39° NNE
Cosmos 2297 Rocket 3.3 19:59:30 10° WSW 20:04:54 43° NW 20:10:19 10° NNE
Cosmos 1452 Rocket 3.8 20:03:56 10° SW 20:09:09 65° WNW 20:14:24 10° NNE
Cosmos 1825 Rocket 4.1 20:08:47 10° N 20:12:10 54° NNW 20:12:10 54° NNW
Cosmos 2263 Rocket 4.3 20:18:29 14° NE 20:18:29 14° NE 20:19:13 10° NE
Lacrosse 5 rocket 2.8 20:10:46 10° WSW 20:12:54 31° W 20:12:54 31° W
USA 245 4.2 20:14:12 75° SE 20:14:42 85° ENE 20:20:09 10° NNW
Cosmos 1241 Rocket 4.5 20:15:18 10° NW 20:21:36 63° NE 20:21:58 61° ENE
Cosmos 1943 3.1 20:16:50 10° NNW 20:22:30 86° NNE 20:22:30 86° NNE
Cosmos 1758 Rocket 4.3 20:19:58 10° NNW 20:23:21 49° NW 20:23:21 49° NW
H-2A R/B 4.0 20:21:02 12° SW 20:24:27 23° W 20:28:27 10° NW
Nadezhda 3 Rocket 4.2 20:30:13 44° SW 20:32:12 68° WNW 20:38:27 10° N
Cosmos 2285 Rocket 4.3 20:29:12 10° NNW 20:35:23 56° NE 20:35:23 56° NE
ADEOS Rocket 4.4 20:30:19 10° N 20:37:17 48° WNW 20:44:35 10° SW
Resurs 01 Rocket 3.6 20:40:23 21° WSW 20:41:08 22° W 20:44:38 10° NW
Cosmos 1605 Rocket 4.0 20:35:28 10° N 20:41:34 76° NE 20:41:34 76° NE
USA 234 3.7 20:49:57 46° NE 20:51:29 56° N 20:57:50 10° WNW
ERS-1 Rocket 3.9 21:00:53 45° NW 21:00:53 45° NW 21:04:35 10° NNW
CZ-2C R/B 3.2 20:57:31 10° N 21:02:35 58° NW 21:02:35 58° NW
SPOT 5 4.0 21:05:28 42° NNW 21:05:28 42° NNW 21:08:54 10° NNW
CZ-4C R/B 3.2 21:02:52 10° NW 21:09:30 54° NE 21:09:50 54° NE
Terra 3.5 21:21:13 31° NNW 21:21:13 31° NNW 21:23:44 10° NNW
Cosmos 2082 Rocket 4.2 21:32:15 10° NNW 21:36:22 21° NNE 21:36:22 21° NNE
Cosmos 2263 Rocket 3.7 22:00:09 31° N 22:00:09 31° N 22:03:23 10° NNE
Cosmos 1833 Rocket 4.4 22:05:00 10° NNW 22:08:12 28° N 22:08:12 28° N
USA 234 4.4 22:37:17 36° WNW 22:37:17 36° WNW 22:40:52 10° WNW
SJ 16-02 4.5 22:36:09 10° N 22:36:33 11° N 22:36:33 11° N
SL-16 R/B 4.5 22:57:25 20° ENE 22:58:00 20° NE 23:02:18 10° N
CZ-4C R/B 4.1 22:51:24 10° NW 22:54:59 32° WNW 22:54:59 32° WNW
Cosmos 2082 Rocket 4.1 23:15:53 10° NNW 23:18:11 25° NNW 23:18:11 25° NNW
ATLAS CENTAUR R/B 4.5 23:37:45 15° N 23:37:45 15° N 23:39:32 10° NNE
USA 267 4.4 23:35:04 10° ENE 23:38:35 35° ENE 23:38:35 35° ENE
